Voltar ao catálogo

FENGYUN 1C DEB

AtivoLEO
NORAD 39540·DEBRIS·🇨🇳 China

Lançado May 10, 1999 de Taiyuan Satellite Launch Center

Loading…

Próximas Passagens (próximas 24 horas)

TLE

EnvelhecendoSource: Space-Track

Época: Sep 9, 2026, 22:47 UTC

1 39540U 99025EWH 26252.94980531  .00001795  00000-0  22532-2 0  9990
2 39540 106.1885 283.9737 0399342 191.7543 293.0340 13.37933045727242

Acompanhe FENGYUN 1C DEB em tempo real com AllMySat

Download on the App Store